Location: Little Chesterford
(52.0500°N, 0.1833°E)
Time: 12:13:58
(UTC+00:00)

NOSS 2-3 (C) - Pass Details

Date: 26 September 2023
Orbit: 506 x 1695 km, 63.3° (Epoch: 06 November)

Event Time Altitude Azimuth Distance (km) Brightness Sun altitude
Rises 19:52:59 0° 230° (SW) 2,608 7.1 -19.4°
Reaches altitude 10° 19:55:01 10° 233° (SW) 1,755 6.2 -19.7°
Maximum altitude 19:58:49 74° 318° (NW) 598 3.5 -20.2°
Enters shadow 20:03:08 11° 44° (NE) 1,987 6.0 -20.8°
